Weather reports worldwide

Advertisment
Sa Pobla, Spain (8312): temperature & dewpoint: 14.06.2019 06:00:00 - 20.06.2019 06:00:00 (CEST)Sa Pobla, Spain (8312): wind speed & gusts: 14.06.2019 06:00:00 - 20.06.2019 06:00:00 (CEST)Sa Pobla, Spain (8312): wind direction: 14.06.2019 06:00:00 - 20.06.2019 06:00:00 (CEST)Sa Pobla, Spain (8312): reduced air pressure: 14.06.2019 06:00:00 - 20.06.2019 06:00:00 (CEST)Sa Pobla, Spain (8312): visibility: 14.06.2019 06:00:00 - 20.06.2019 06:00:00 (CEST)Sa Pobla, Spain (8312): sunshine duration: 14.06.2019 06:00:00 - 20.06.2019 06:00:00 (CEST)Sa Pobla, Spain (8312): precipitation: 14.06.2019 06:00:00 - 20.06.2019 06:00:00 (CEST)
Date & Time tt [°C] td [°C] ff [km/h] ff [kn] fx [km/h] fx [kn] dd ppp [hPa] vv [km] sd [min] rr [mm]
20.06.2019 06:00:00 - - - - - - - - - - -
20.06.2019 05:00:00 19,1 17,8 6 3 13 7 SSW 1014,0 6 0 0,0
20.06.2019 04:00:00 19,4 18,2 3 2 - - WNW 1013,9 7 - -
20.06.2019 03:00:00 19,2 18,2 5 3 17 9 WSW 1014,2 6 0 0,0
20.06.2019 02:00:00 18,4 16,0 4 2 7 4 SSE 1013,8 8 0 -
20.06.2019 01:00:00 19,5 16,7 3 2 9 5 SW 1013,8 9 0 0,0
20.06.2019 00:00:00 20,5 16,7 4 2 10 6 S 1013,9 10 0 0,0
19.06.2019 23:00:00 21,8 16,3 6 3 13 7 S 1013,8 15 0 0,0
19.06.2019 22:00:00 23,4 16,5 8 4 20 11 SSW 1013,4 20 0 0,0
19.06.2019 21:00:00 25,0 17,0 5 3 16 8 E 1013,2 20 27 0,0
19.06.2019 20:00:00 29,8 12,6 8 4 19 10 WSW 1012,7 20 60 -
19.06.2019 19:00:00 30,4 12,3 10 5 25 13 SW 1012,7 20 60 0,0
19.06.2019 18:00:00 30,4 14,5 12 7 31 17 SW 1013,1 20 60 0,0
19.06.2019 17:00:00 31,1 15,5 14 7 30 16 SW 1013,4 20 60 0,0
19.06.2019 16:00:00 31,8 16,1 11 6 30 16 SW 1013,5 20 60 0,0
19.06.2019 15:00:00 - - - - - - - - - - -
19.06.2019 14:00:00 29,8 16,2 17 9 34 18 SSW 1014,2 20 60 -
19.06.2019 13:00:00 29,3 15,4 16 8 35 19 SSW 1014,5 20 60 0,0
19.06.2019 12:00:00 30,6 12,5 14 7 30 16 SSW 1014,2 20 60 0,0
19.06.2019 11:00:00 - - - - - - - - - - -
19.06.2019 10:00:00 - - - - - - - - - - -
19.06.2019 09:00:00 - - - - - - - - - - -
19.06.2019 08:00:00 - - - - - - - - - - -
19.06.2019 07:00:00 - - - - - - - - - - -
19.06.2019 06:00:00 - - - - - - - - - - -
19.06.2019 05:00:00 - - - - - - - - - - -
19.06.2019 04:00:00 - - - - - - - - - - -
19.06.2019 03:00:00 - - - - - - - - - - -
19.06.2019 02:00:00 - - - - - - - - - - -
19.06.2019 01:00:00 - - - - - - - - - - -
19.06.2019 00:00:00 - - - - - - - - - - -
18.06.2019 23:00:00 - - - - - - - - - - -
18.06.2019 22:00:00 - - - - - - - - - - -
18.06.2019 21:00:00 - - - - - - - - - - -
18.06.2019 20:00:00 - - - - - - - - - - -
18.06.2019 19:00:00 30,8 7,3 14 8 29 15 S 1014,6 20 60 0,0
18.06.2019 18:00:00 31,8 7,4 13 7 29 16 S 1014,8 20 60 0,0
18.06.2019 17:00:00 32,6 8,8 13 7 32 17 SW 1015,1 20 60 0,0
18.06.2019 16:00:00 32,9 6,2 14 7 31 17 SSE 1015,3 20 60 0,0
18.06.2019 15:00:00 32,9 7,0 12 7 33 18 SSW 1015,4 20 60 0,0
18.06.2019 14:00:00 32,4 7,3 9 5 25 14 SSE 1015,9 20 60 -
18.06.2019 13:00:00 31,0 6,8 12 6 21 12 SSE 1016,3 20 60 0,0
18.06.2019 12:00:00 29,9 7,1 6 3 23 12 SE 1016,7 20 60 0,0
18.06.2019 11:00:00 28,2 7,4 8 4 16 8 ESE 1017,1 20 60 0,0
18.06.2019 10:00:00 25,7 11,8 4 2 9 5 SE 1017,3 20 60 0,0
18.06.2019 09:00:00 22,3 12,8 2 1 6 3 S 1017,4 20 58 0,0
18.06.2019 08:00:00 18,7 11,6 4 2 9 5 S 1017,2 20 60 -
18.06.2019 07:00:00 14,3 10,3 4 2 7 4 SW 1016,9 20 7 0,0
18.06.2019 06:00:00 13,7 10,5 4 2 8 5 SW 1016,8 20 0 0,0
18.06.2019 05:00:00 14,2 9,8 7 4 10 5 SSW 1016,7 20 0 0,0
18.06.2019 04:00:00 14,8 10,2 3 2 8 4 SW 1017,0 20 0 0,0
18.06.2019 03:00:00 15,6 10,5 3 2 9 5 SW 1017,3 20 0 0,0
18.06.2019 02:00:00 16,2 10,8 3 1 7 4 SSW 1017,6 20 0 -
18.06.2019 01:00:00 17,4 10,8 4 2 8 5 SW 1018,1 20 0 0,0
18.06.2019 00:00:00 18,3 11,1 3 2 7 4 SSW 1017,9 20 0 0,0
17.06.2019 23:00:00 19,7 11,0 5 3 8 4 S 1017,6 20 0 0,0
17.06.2019 22:00:00 21,3 12,7 3 1 11 6 E 1017,4 20 0 0,0
17.06.2019 21:00:00 24,1 12,1 6 4 14 8 ENE 1016,8 20 27 0,0
17.06.2019 20:00:00 27,1 12,0 9 5 18 10 NE 1016,5 20 60 -
17.06.2019 19:00:00 27,2 12,4 11 6 25 13 ENE 1016,5 20 60 0,0
17.06.2019 18:00:00 27,9 12,2 13 7 24 13 ENE 1016,8 20 60 0,0
17.06.2019 17:00:00 29,2 11,2 13 7 25 14 ENE 1017,2 20 60 0,0
17.06.2019 16:00:00 29,3 10,9 16 9 30 16 ENE 1017,4 20 60 0,0
17.06.2019 15:00:00 30,3 10,3 16 9 28 15 ENE 1017,4 20 60 0,0
17.06.2019 14:00:00 29,9 11,4 16 8 27 15 NE 1017,5 20 60 -
17.06.2019 13:00:00 30,5 8,3 15 8 25 14 NE 1017,7 20 60 0,0
17.06.2019 12:00:00 30,4 9,8 9 5 19 10 E 1017,9 20 60 0,0
17.06.2019 11:00:00 28,5 12,8 3 2 9 5 SE 1017,9 20 60 0,0
17.06.2019 10:00:00 24,6 13,5 4 2 7 4 E 1018,1 20 60 0,0
17.06.2019 09:00:00 23,0 14,8 3 1 7 4 SE 1018,3 20 60 0,0
17.06.2019 08:00:00 18,4 14,0 3 1 8 5 SW 1018,1 20 42 -
17.06.2019 07:00:00 14,2 12,1 3 2 7 4 SSW 1018,3 20 0 0,0
17.06.2019 06:00:00 15,0 12,8 4 2 9 5 WSW 1018,6 20 0 0,0
17.06.2019 05:00:00 15,6 13,1 2 1 7 4 NNW 1018,5 9 0 0,0
17.06.2019 04:00:00 16,9 14,3 5 3 7 4 S 1018,8 20 0 0,0
17.06.2019 03:00:00 17,1 14,0 2 1 7 4 NNW 1018,6 20 0 0,0
17.06.2019 02:00:00 18,1 13,6 5 3 9 5 SW 1019,1 20 0 -
17.06.2019 01:00:00 18,0 11,8 3 1 10 5 W 1019,0 20 0 0,0
17.06.2019 00:00:00 18,7 12,2 2 1 6 3 W 1018,9 10 0 0,0
16.06.2019 23:00:00 19,5 9,9 7 4 9 5 SSE 1019,1 20 0 0,0
16.06.2019 22:00:00 20,5 11,1 4 2 7 4 W 1018,7 7 0 0,0
16.06.2019 21:00:00 22,2 11,0 5 3 12 6 E 1018,4 20 0 0,0
16.06.2019 20:00:00 23,2 9,6 10 6 18 10 NE 1018,7 20 0 -
16.06.2019 19:00:00 25,2 7,3 9 5 30 16 ENE 1018,7 20 29 0,0
16.06.2019 18:00:00 26,6 7,1 14 8 26 14 NE 1018,8 20 60 0,0
16.06.2019 17:00:00 26,9 9,3 11 6 26 14 NE 1019,8 20 60 0,0
16.06.2019 16:00:00 26,4 12,8 12 7 26 14 NE 1020,3 20 53 0,0
16.06.2019 15:00:00 25,9 12,7 15 8 29 16 NE 1020,5 20 60 0,0
16.06.2019 14:00:00 26,0 13,5 16 9 29 15 ENE 1021,0 20 60 -
16.06.2019 13:00:00 25,6 12,7 16 9 34 19 NNE 1021,3 20 60 0,0
16.06.2019 12:00:00 24,3 13,0 19 10 35 19 NE 1021,3 20 60 0,0
16.06.2019 11:00:00 23,0 13,0 21 11 37 20 NE 1021,3 20 60 0,0
16.06.2019 10:00:00 22,1 13,2 25 13 36 19 NNE 1021,1 20 60 0,0
16.06.2019 09:00:00 20,9 13,4 22 12 35 19 NNE 1021,0 20 59 0,0
16.06.2019 08:00:00 19,9 13,2 19 10 26 14 NNE 1020,8 20 57 -
16.06.2019 07:00:00 16,6 14,4 4 2 7 4 NNW 1020,9 20 7 0,0
16.06.2019 06:00:00 16,6 14,2 6 3 13 7 N 1020,7 20 0 0,0
16.06.2019 05:00:00 17,6 14,7 10 5 16 9 N 1020,7 20 0 0,0
16.06.2019 04:00:00 17,9 14,8 8 4 15 8 N 1021,0 20 0 0,0
16.06.2019 03:00:00 18,3 15,2 11 6 19 10 N 1021,1 20 0 0,0
16.06.2019 02:00:00 18,7 14,8 11 6 22 12 N 1021,1 20 0 -
16.06.2019 01:00:00 19,3 14,8 16 9 33 18 NNE 1021,1 20 0 0,0
16.06.2019 00:00:00 20,3 16,1 19 11 32 17 NNE 1020,7 18 0 0,0
15.06.2019 23:00:00 20,6 16,8 14 8 24 13 NE 1020,1 16 0 0,0
15.06.2019 22:00:00 20,3 17,5 10 6 23 12 NE 1019,1 15 0 0,0
15.06.2019 21:00:00 21,6 17,4 10 6 26 14 ENE 1018,4 17 13 0,0
15.06.2019 20:00:00 23,8 17,3 13 7 25 14 ENE 1017,6 18 60 -
15.06.2019 19:00:00 25,1 17,5 14 8 26 14 ENE 1017,1 20 60 0,0
15.06.2019 18:00:00 26,2 17,3 16 8 29 16 ENE 1017,0 20 60 0,0
15.06.2019 17:00:00 27,1 16,7 17 9 32 17 ENE 1016,9 20 60 0,0
15.06.2019 16:00:00 28,4 16,0 15 8 29 15 ENE 1016,9 20 60 0,0
15.06.2019 15:00:00 29,0 15,2 17 9 29 15 ENE 1016,7 20 60 0,0
15.06.2019 14:00:00 29,6 14,5 14 8 34 18 ENE 1016,5 20 60 -
15.06.2019 13:00:00 30,1 13,9 9 5 24 13 ENE 1016,6 15 60 0,0
15.06.2019 12:00:00 28,7 14,1 5 3 18 10 S 1016,6 18 60 0,0
15.06.2019 11:00:00 25,6 15,0 11 6 29 16 SSW 1016,6 20 60 0,0
15.06.2019 10:00:00 23,7 15,4 16 9 33 18 SSW 1016,7 20 60 0,0
15.06.2019 09:00:00 22,8 15,3 17 9 34 18 SW 1016,2 20 48 0,0
15.06.2019 08:00:00 21,2 16,1 9 5 22 12 SSW 1015,9 20 35 -
15.06.2019 07:00:00 18,7 16,8 9 5 23 12 S 1015,6 17 2 0,0
15.06.2019 06:00:00 17,4 16,4 11 6 27 15 SSW 1015,4 13 0 0,0
15.06.2019 05:00:00 17,8 16,6 15 8 30 16 SSW 1015,0 13 0 0,0
15.06.2019 04:00:00 18,0 17,1 17 9 30 16 SSW 1014,9 13 0 0,0
15.06.2019 03:00:00 18,1 16,8 18 10 29 16 S 1015,2 13 0 0,0
15.06.2019 02:00:00 18,8 16,8 16 8 29 15 S 1015,2 12 0 -
15.06.2019 01:00:00 19,8 17,1 15 8 27 15 SSW 1015,6 14 0 0,0
15.06.2019 00:00:00 20,1 17,5 14 8 26 14 SSW 1015,9 11 0 0,0
14.06.2019 23:00:00 20,8 16,8 14 8 28 15 SSW 1015,5 16 0 0,0
14.06.2019 22:00:00 21,3 16,7 11 6 31 17 SW 1015,0 18 0 0,0
14.06.2019 21:00:00 22,7 16,0 18 10 35 19 SSW 1014,0 20 22 0,0
14.06.2019 20:00:00 26,9 12,5 16 9 35 19 SSW 1013,4 20 60 -
14.06.2019 19:00:00 27,4 11,4 18 10 36 19 SSW 1012,6 20 60 0,0
14.06.2019 18:00:00 27,8 12,2 20 11 38 20 SSW 1012,1 20 60 0,0
14.06.2019 17:00:00 28,8 12,6 19 11 44 24 SW 1011,8 20 60 0,0
14.06.2019 16:00:00 28,9 13,6 16 9 35 19 SSW 1011,2 19 60 0,0
14.06.2019 15:00:00 28,5 14,3 11 6 36 19 SW 1010,7 20 60 0,0
14.06.2019 14:00:00 26,5 15,3 18 10 39 21 WSW 1010,8 20 48 -
14.06.2019 13:00:00 26,1 16,0 21 11 41 22 SW 1010,3 20 21 0,0
14.06.2019 12:00:00 26,0 16,2 19 11 39 21 SSW 1009,1 20 37 0,0
14.06.2019 11:00:00 25,9 17,0 10 5 29 16 W 1008,7 20 41 0,0
14.06.2019 10:00:00 24,0 16,8 16 9 31 17 SSW 1008,2 20 11 0,0
14.06.2019 09:00:00 24,7 17,2 9 5 18 10 S 1007,1 15 20 0,0
14.06.2019 08:00:00 22,8 17,5 1 1 11 6 S 1006,0 11 0 -
14.06.2019 07:00:00 20,6 17,4 5 3 17 9 SW 1006,5 16 0 0,0
14.06.2019 06:00:00 20,2 17,2 9 5 16 9 N 1005,8 17 0 0,0

tt = temperature
td = dewpoint
ff = wind speed
fx = gusts
dd = wind direction
ppp = reduced air pressure
vv = visibility
sd = sunshine duration
rr = precipitation

Next stations